Location: Friaudour
(46.0460°N, 1.2873°E)
Time: 08:39:21
(UTC+00:00)

COSMOS 2406 - Pass Details

Date: 14 July 2020
Orbit: 844 x 862 km, 71.0° (Epoch: 14 August)

Event Time Altitude Azimuth Distance (km) Brightness Sun altitude
Exits shadow 00:49:36 27° 140° (SE) 1,586 4.3 -21.4°
Maximum altitude 00:51:28 34° 105° (ESE) 1,391 4.3 -21.4°
Drops below altitude 10° 00:56:35 10° 42° (NE) 2,508 6.5 -21.1°
Sets 00:59:15 0° 34° (NE) 3,448 7.6 -21.0°
